Weather History for Ann Arbor, MI

Change the Weather History Date:

Monday, October 28, 2013

  Actual Average Record
Temperature  
Mean Temperature 40 °F -  
Max Temperature 52 °F 55 °F 73 °F (1999)
Min Temperature 27 °F 35 °F 21 °F (2001)
Degree Days  
Heating Degree Days 26    
Moisture  
Dew Point 32 °F    
Average Humidity 74    
Maximum Humidity 96    
Minimum Humidity 59    
Precipitation  
Precipitation 0.00 in - - ()
Sea Level Pressure  
Sea Level Pressure 30.26 in    
Wind  
Wind Speed 4 mph (NE)    
Max Wind Speed 10 mph    
Max Gust Speed -    
Visibility 10 miles    
Events      
Averages and records for this station are not official NWS values.
T = Trace of Precipitation, MM = Missing Value Source: NWS Daily Summary

Daily Weather History Graph

Daily Weather History Graph

Search for Another Location

Airport:

Trip Planner

Search our weather history database for the weather conditions in past years. The results will help you decide how hot, cold, wet, or windy it might be!

Date:

Astronomy

Oct. 28, 2013 Rise Set
Actual Time 8:03 AM EDT 6:33 PM EDT
Civil Twilight 7:34 AM EDT 7:02 PM EDT
Nautical Twilight 7:01 AM EDT 7:35 PM EDT
Astronomical Twilight 6:29 AM EDT 8:07 PM EDT
Moon 1:49 AM EDT (10/28) 3:20 PM EDT (10/28)
Length of Visible Light 11h 27m
Length of Day
10h 30m
Waning Crescent, 34% of the Moon is Illuminated
Oct 28
Waning Crescent
Nov 3
New
Nov 10
First Quarter
Nov 17
Full
Nov 25
Last Quarter

Hourly Weather History & Observations

Time (EDT) Temp. Windchill Dew Point Humidity Pressure Visibility Wind Dir Wind Speed Gust Speed Precip Events Conditions
12:53 AM 34.0 °F - 28.0 °F 79% 30.08 in 10.0 mi Calm Calm - N/A   Clear
1:53 AM 30.9 °F - 28.0 °F 89% 30.09 in 10.0 mi Calm Calm - N/A   Clear
2:53 AM 30.0 °F - 28.0 °F 92% 30.09 in 10.0 mi Calm Calm - N/A   Clear
3:53 AM 28.0 °F - 25.0 °F 88% 30.10 in 10.0 mi Calm Calm - N/A   Clear
4:53 AM 28.0 °F - 26.1 °F 92% 30.12 in 10.0 mi Calm Calm - N/A   Clear
5:53 AM 27.0 °F 23.0 °F 25.0 °F 92% 30.14 in 10.0 mi WSW 3.5 mph - N/A   Clear
6:53 AM 27.0 °F - 24.1 °F 89% 30.16 in 8.0 mi Calm Calm - N/A   Clear
7:53 AM 28.0 °F - 26.1 °F 92% 30.20 in 10.0 mi Calm Calm - N/A   Overcast
8:53 AM 30.9 °F - 30.0 °F 96% 30.23 in 10.0 mi Calm Calm - N/A   Overcast
9:53 AM 44.1 °F 39.5 °F 36.0 °F 73% 30.25 in 10.0 mi NNE 8.1 mph - N/A   Overcast
10:53 AM 46.9 °F - 37.0 °F 68% 30.27 in 10.0 mi NE 10.4 mph - N/A   Mostly Cloudy
11:17 AM 48.2 °F - 37.4 °F 66% 30.26 in 10.0 mi ENE 6.9 mph - N/A   Overcast
11:53 AM 48.9 °F - 37.9 °F 66% 30.30 in 10.0 mi NE 8.1 mph - N/A   Overcast
12:53 PM 50.0 °F - 37.9 °F 63% 30.30 in 10.0 mi NE 10.4 mph - N/A   Overcast
1:53 PM 52.0 °F - 39.0 °F 61% 30.30 in 10.0 mi East 10.4 mph - N/A   Overcast
2:53 PM 52.0 °F - 37.9 °F 59% 30.30 in 10.0 mi ENE 5.8 mph - N/A   Overcast
3:53 PM 51.1 °F - 37.0 °F 59% 30.31 in 10.0 mi NE 9.2 mph - N/A   Overcast
4:53 PM 50.0 °F - 37.9 °F 63% 30.32 in 10.0 mi ENE 8.1 mph - N/A   Overcast
5:53 PM 46.9 °F - 37.0 °F 68% 30.32 in 10.0 mi ENE 10.4 mph - N/A   Overcast
6:53 PM 45.0 °F 41.2 °F 35.1 °F 68% 30.33 in 10.0 mi ENE 6.9 mph - N/A   Overcast
7:53 PM 43.0 °F 37.2 °F 32.0 °F 65% 30.36 in 10.0 mi NE 10.4 mph - N/A   Partly Cloudy
8:53 PM 39.9 °F 35.1 °F 30.9 °F 70% 30.37 in 10.0 mi NNE 6.9 mph - N/A   Clear
9:53 PM 41.0 °F 36.4 °F 32.0 °F 70% 30.38 in 10.0 mi NNE 6.9 mph - N/A   Overcast
10:21 PM 41.0 °F 36.4 °F 30.2 °F 65% 30.37 in 10.0 mi NE 6.9 mph - N/A   Overcast
10:53 PM 41.0 °F 36.4 °F 30.9 °F 67% 30.39 in 10.0 mi NE 6.9 mph - N/A   Overcast
11:53 PM 37.9 °F 32.1 °F 28.9 °F 70% 30.40 in 10.0 mi NNE 8.1 mph - N/A   Clear